This is the latest recevied weather packets stored in our database for station/object KI5NXU. If no packets are shown the sender has not sent any weather packets the latest 10 day(s).
| Time | Temp. | Humidity | Pressure | Rain* | Wind** | Luminosity | Snow |
|---|---|---|---|---|---|---|---|
| 1777917062 | 26.67° C | 60% | 1008.8 hPa | 0 mm | - | 741 W/m² | - |
| 1777916761 | 25.56° C | 59% | 1008.9 hPa | 0 mm | - | 727 W/m² | - |
| 1777916457 | 26.67° C | 58% | 1009 hPa | 0 mm | - | 672 W/m² | - |
| 1777916154 | 25.56° C | 61% | 1008.9 hPa | 0 mm | - | 755 W/m² | - |
| 1777915851 | 26.11° C | 61% | 1009.1 hPa | 0 mm | - | 695 W/m² | - |
| 1777915547 | 26.11° C | 59% | 1008.8 hPa | 0 mm | - | 676 W/m² | - |
| 1777915244 | 26.11° C | 59% | 1009.3 hPa | 0 mm | - | 684 W/m² | - |
| 1777914941 | 26.11° C | 58% | 1009.3 hPa | 0 mm | - | 697 W/m² | - |
| 1777914638 | 25.56° C | 60% | 1009.4 hPa | 0 mm | - | 798 W/m² | - |
| 1777914334 | 26.11° C | 58% | 1009.5 hPa | 0 mm | - | 735 W/m² | - |
| 1777914032 | 25° C | 60% | 1009.2 hPa | 0 mm | - | 787 W/m² | - |
| 1777913727 | 24.44° C | 63% | 1009.4 hPa | 0 mm | - | 715 W/m² | - |
| 1777913424 | 24.44° C | 62% | 1009.3 hPa | 0 mm | - | 830 W/m² | - |
| 1777913121 | 23.89° C | 63% | 1009.4 hPa | 0 mm | - | 832 W/m² | - |
| 1777912817 | 23.89° C | 63% | 1009.5 hPa | 0 mm | - | 806 W/m² | - |
| 1777912513 | 23.89° C | 64% | 1010.1 hPa | 0 mm | - | 801 W/m² | - |
| 1777912210 | 24.44° C | 63% | 1010.1 hPa | 0 mm | - | 796 W/m² | - |
| 1777911906 | 23.89° C | 64% | 1010 hPa | 0 mm | - | 736 W/m² | - |
| 1777911602 | 23.33° C | 65% | 1010.1 hPa | 0 mm | - | 609 W/m² | - |
| 1777911298 | 22.78° C | 65% | 1010.1 hPa | 0 mm | - | 546 W/m² | - |
| 1777910996 | 22.78° C | 65% | 1010.1 hPa | 0 mm | - | 506 W/m² | - |
| 1777910694 | 23.89° C | 65% | 1010.3 hPa | 0 mm | - | 442 W/m² | - |
| 1777910390 | 22.78° C | 67% | 1010.1 hPa | 0 mm | - | 576 W/m² | - |
| 1777910086 | 23.33° C | 65% | 1010.4 hPa | 0 mm | - | 540 W/m² | - |
| 1777909784 | 23.33° C | 65% | 1010.4 hPa | 0 mm | - | 536 W/m² | - |
* Rain latest hour (hover to see other rain measurements)
** Current wind speed in m/s (hover to see current wind gust speed)